Location: M.A.R.S.Observatory
(35.4031°N, 81.5481°W)
Time: 17:15:10
(UTC-05:00)

Daily predictions for brighter satellites

Satellite Brightness Start Highest point End
(mag) Time Altitude Azimuth Time Altitude Azimuth Time Altitude Azimuth
Okean 1 Rocket 3.2 17:35:53 10° N 17:40:13 81° W 17:44:33 10° S
Cosmos 1536 2.9 17:37:01 10° N 17:41:02 60° E 17:45:03 10° SSE
Hubble Space Telescope 2.7 17:41:45 10° WSW 17:45:17 27° S 17:48:47 10° SE
Cosmos 1461 2.7 17:41:32 10° NNW 17:45:29 85° ENE 17:49:27 10° SSE
COSMO-SKYMED 1 3.8 17:42:00 10° NE 17:45:30 23° E 17:48:57 10° SSE
Cosmos 1975 Rocket 3.0 17:42:48 10° S 17:47:05 77° E 17:51:25 10° N
Cosmos 1544 Rocket 4.5 17:43:38 10° NNE 17:47:29 28° ENE 17:51:19 10° SE
Cosmos 372 Rocket 4.1 17:42:41 10° SSW 17:47:55 89° W 17:53:13 10° NNE
MSX 4.2 17:43:23 10° SE 17:48:44 42° ENE 17:54:06 10° N
Meteor 1-11 Rocket 4.2 17:44:02 10° NNW 17:49:32 66° W 17:54:58 10° S
SMAP 3.1 17:45:24 10° SSE 17:49:58 62° ENE 17:54:34 10° N
AQUARIUS 4.2 17:46:16 10° SSE 17:50:41 64° ENE 17:55:09 10° N
USA 234 4.4 17:44:55 10° NNE 17:50:42 35° NNW 17:56:28 10° W
Okean 3 4.1 17:47:34 10° SSW 17:51:48 60° W 17:56:03 10° N
SJ-12 3.8 17:48:00 10° SSE 17:52:04 73° ENE 17:56:09 10° N
Cosmos 2263 Rocket 4.2 17:49:24 10° WSW 17:53:51 24° WNW 17:58:21 10° N
CZ-3B DEB 1.6 17:53:53 10° SW 17:56:51 79° SE 18:04:16 10° NE
Thor Agena Rocket 3.7 17:52:52 10° N 17:58:05 80° WNW 18:03:19 10° SSW
CZ-4 R/B 1.7 17:54:10 10° S 17:58:21 76° W 18:02:32 10° NNW
NOSS 3-1 (A) 4.3 17:51:07 10° NNW 17:58:56 84° WSW 18:07:22 10° SSE
Cosmos 1346 Rocket 4.4 17:59:39 10° SE 18:01:56 15° E 18:02:56 14° ENE
Cosmos 1536 Rocket 4.3 17:59:39 10° SSE 18:03:38 33° E 18:07:39 10° NNE
Cosmos 1269 Rocket 4.3 17:58:51 10° NNW 18:04:09 74° WSW 18:09:26 10° S
Cosmos 1812 3.1 18:03:45 10° SSE 18:07:24 42° E 18:11:03 10° NNE
YAOGAN 1 2.7 18:06:09 10° S 18:10:28 82° WSW 18:14:50 10° NNW
ATLAS 2AS CENTAUR R/B 3.4 18:03:27 10° NNW 18:11:01 42° NE 18:18:06 10° ESE
SL-8 Rocket 3.9 18:05:26 10° N 18:11:36 75° E 18:17:44 10° S
Cosmos 2251 Rocket 4.0 18:09:19 10° N 18:14:19 38° ENE 18:19:15 10° SE
Cosmos 1844 Rocket 3.0 18:14:47 10° SSW 18:20:20 69° WNW 18:25:56 10° NNE
Cosmos 2366 rocket 4.0 18:14:48 10° N 18:21:07 64° E 18:27:21 10° SSE
Cosmos 1975 3.6 18:17:38 10° NNE 18:21:15 30° ENE 18:24:51 10° SE
Cosmos 2218 Rocket 3.9 18:15:11 10° N 18:21:30 75° E 18:27:41 10° SSE
OTV 4 0.3 18:19:06 10° WNW 18:22:07 75° NNE 18:23:25 30° E
Cosmos 1844 3.7 18:21:44 10° SSW 18:27:19 82° WNW 18:32:53 10° NNE
Cosmos 1959 Rocket 4.4 18:21:58 10° N 18:28:10 84° E 18:34:24 10° S
GEOS 3 Rocket 3.7 18:24:23 10° SE 18:29:21 52° NE 18:34:19 10° NNW
SL-27 R/B 2.4 18:27:36 10° N 18:31:15 62° ENE 18:34:51 10° SSE
Meteor 2-19 Rocket 4.5 18:27:32 10° N 18:33:37 82° W 18:39:38 10° S
SKYMED 2 3.5 18:29:20 10° NNE 18:33:41 88° E 18:38:02 10° SSW
DMSP B5D1-3 4.5 18:29:19 10° NNE 18:34:26 65° ESE 18:39:31 10° S
SL-8 R/B 3.6 18:31:59 10° SW 18:36:45 80° SE 18:39:03 30° ENE
ISS -1.4 18:34:39 10° W 18:37:22 23° NNW 18:38:49 18° N
Cosmos 1455 Rocket 2.9 18:33:02 10° N 18:37:27 83° E 18:41:52 10° S
BREEZE-M R/B 4.4 18:32:54 10° SW 18:44:24 73° NW 18:47:38 26° NE
Cosmos 2278 Rocket 2.1 18:40:01 10° SSW 18:45:39 85° ESE 18:50:04 17° NNE
Meteor 1-13 Rocket 4.4 18:41:43 10° SSE 18:47:02 47° E 18:50:26 22° NNE
COSMOS 2406 4.2 18:41:55 10° NNW 18:47:25 50° WSW 18:52:55 10° S
Cosmos 1484 Rocket 3.4 18:50:01 10° S 18:53:44 54° W 18:57:25 10° NNW
Cosmos 1809 Rocket 4.4 18:47:39 10° N 18:53:46 64° E 18:59:49 10° SSE
OAO 1 4.4 18:58:02 10° W 19:03:32 84° S 19:04:57 51° E
Tiangong 1 3.1 19:05:17 10° SW 19:06:36 21° SSW 19:06:36 21° SSW
Nadezhda 3 Rocket 3.9 19:07:05 10° S 19:13:15 85° W 19:19:31 10° N
Cosmos 2082 Rocket 3.8 19:08:58 10° N 19:10:50 19° N 19:10:50 19° N
Hubble Space Telescope 3.4 19:23:59 10° SW 19:25:56 13° SSW 19:27:01 12° S
Cosmos 1500 4.4 19:28:52 41° W 19:28:54 41° W 19:32:31 10° SSW
Meteor 2-4 Rocket 4.4 19:24:25 10° S 19:27:44 37° SSE 19:27:44 37° SSE
METEOR-M 4.4 19:30:53 10° S 19:36:10 66° WSW 19:41:29 10° NNW
ATLAS 2AS CENTAUR R/B 4.0 19:54:41 10° NW 20:02:00 42° WSW 20:08:48 10° S
FALCON 9 R/B 2.9 19:45:43 10° W 20:01:52 83° SSW 20:01:52 83° SSW
ATLAS 3B CENTAUR R/B 3.6 20:12:08 10° W 20:22:04 43° SW 20:22:04 43° SW
